Welcome to the New NWS' Forecast!
Most changes are behind the scenes, but click here for differences you might notice.
Latest weather observations around

Hot Springs, Memorial Field Airport (KHOT)

Using English Units (Switch to International System of Units)
Date/ Time (CDT) Wind (mph) Vis. (mi) Weather Sky Cond. Temp (°F) Rel. Humidity Wind Chill (°F) Heat Index (°F) Pressure Precip. (in)
Air Dwpt 6 hour Altimeter (inHg) Sea level (inHg) 1 hr 3 hr 6 hr
Max Min
Sep 19 05:53 Calm 9 Clear CLR 69 68     96%     29.94 29.92      
Sep 19 04:53 Calm 10 Clear CLR 70 68     93%     29.92 29.9      
Sep 19 03:53 Calm 10 Clear CLR 72 69     91%   73 29.92 29.89      
Sep 19 02:53 NW 3 10 Clear CLR 71 68     90%   72 29.92 29.9      
Sep 19 01:53 NW 5 10 Clear CLR 73 70     90%   74 29.94 29.91      
Sep 19 00:53 Calm 10 Clear CLR 74 69     85%   75 29.95 29.93      
Sep 18 23:53 ENE 3 10 Clear CLR 75 69     82%   76 29.97 29.95      
Sep 18 22:53 Calm 10 Clear CLR 75 68     79%   76 29.97 29.94      
Sep 18 21:53 Calm 10 Clear CLR 78 67     69%   79 29.97 29.94      
Sep 18 20:53 S 3 10 Clear CLR 83 66     57%   85 29.96 29.94      
Sep 18 19:53 S 5 10 Clear CLR 84 66     55%   86 29.94 29.91      
Sep 18 18:53 SW 5 10 Clear   87 64     46%   88 29.93 29.91      
Sep 18 17:53 WSW 7 10 Clear CLR 91 62     38%   92 29.92 29.9      
Sep 18 16:53 W 7 10 Clear CLR 91 62     38%   92 29.92 29.9      
Sep 18 15:53 S 8 10 Mostly Clear FEW060 91 67     45%   94 29.94 29.91      
Sep 18 14:53 S 6 10 Partly Cloudy FEW060 SCT080 88 69     54%   92 29.97 29.94      
Sep 18 14:12 SSW 14 10 Mostly Cloudy BKN055 BKN070 86 69     57%   90 29.99        
Sep 18 13:53 SSW 9 10 Mostly Cloudy BKN055 BKN065 90 68     49%   94 30 29.97      
Sep 18 13:46 WNW 8 10 Mostly Cloudy BKN050 94 67     41%   98 29.99        
Sep 18 12:53 W 5 10 Mostly Cloudy FEW050 SCT070 BKN100 88 68     52%   92 30.02 29.99      
Sep 18 11:53 3 10 Mostly Cloudy SCT044 BKN055 BKN100 87 69     55%   91 30.04 30.02      
Sep 18 10:53 3 10 Clear CLR 88 70     55%   93 30.04 30.02      
Sep 18 09:53 Calm 10 Clear CLR 84 71     65%   89 30.05 30.02      
Sep 18 08:53 Calm 10 Clear CLR 78 72     82%   79 30.05 30.03      
Sep 18 07:53 SE 3 10 Mostly Cloudy BKN039 BKN055 74 71     91%   75 30.05 30.03      
Sep 18 03:53 ENE 3 10 Clear CLR 73 70     90%   74 30.01 29.98      
Sep 18 02:53 ESE 6 10 Clear CLR 75 70     84%   76 29.98 29.96      
Sep 18 01:53 E 3 10 Clear CLR 75 70     84%   76 29.99 29.97      
Sep 18 00:53 SSE 5 10 Clear CLR 77 71     82%   78 30.01 29.98      
Sep 17 23:53 Calm 10 Mostly Clear FEW065 79 70     74%   82 30.03 30.01      
Sep 17 22:53 Calm 10 Cloudy BKN049 OVC055 83 69     63%   87 30.05 30.02      
Sep 17 21:53 E 5 10 Cloudy BKN060 OVC075 81 70     69%   84 30.05 30.02      
Sep 17 20:53 Calm 10 Clear CLR 84 70     63%   88 30.04 30.01      
Sep 17 19:53 ESE 5 10 Mostly Cloudy BKN070 86 69     57%   90 30.03 30.01      
Sep 17 18:53 E 6 10 Partly Cloudy SCT060 SCT070 88 69     54%   92 30.02 30      
Sep 17 17:53 ENE 9 10 Cloudy OVC060 91 66     44%   94 30.02 30      
Sep 17 16:53 W 3 10 Clear CLR 93 64     38%   95 30 29.98      
Sep 17 15:53 5 10 Clear CLR 93 65     40%   95 30.01 29.98      
Sep 17 14:53 7 10 Mostly Clear FEW085 93 65     40%   95 30.04 30.02      
Sep 17 13:53 SSW 9 10 Partly Cloudy FEW055 SCT080 92 65     41%   94 30.06 30.04      
Sep 17 12:53 S 8 10 Partly Cloudy FEW055 SCT070 92 66     43%   95 30.08 30.06      
Sep 17 11:53 5 10 Mostly Clear FEW043 90 68     49%   94 30.09 30.07      
Sep 17 10:53 NNW 3 10 Clear CLR 86 69     57%   90 30.09 30.07      
Sep 17 09:53 Calm 10 Clear CLR 82 70     67%   86 30.1 30.08      
Sep 17 08:53 Calm 10 Clear CLR 76 71     85%   77 30.09 30.07      
Sep 17 07:53 Calm 8 Clear CLR 70 68     93%     30.08 30.06      
Sep 17 06:53 Calm 6 Fog/Mist CLR 67 66     97%     30.06 30.04      
Sep 17 05:53 Calm 7 Clear CLR 69 68     96%     30.06 30.03      
Sep 17 04:53 Calm 8 Clear CLR 69 69     100%     30.04 30.02      
Sep 17 03:53 NW 3 9 Clear CLR 70 69     97%     30.03 30.01      
Sep 17 01:53 E 3 10 Clear CLR 71 69     93%   72 30.04 30.02      
Sep 17 00:53 ENE 3 10 Clear CLR 74 70     87%   75 30.05 30.02      
Sep 16 23:53 E 5 10 Clear CLR 75 70     84%   76 30.04 30.02      
Sep 16 22:53 ENE 5 10 Clear CLR 75 69     82%   76 30.04 30.01      
Sep 16 21:53 E 5 10 Clear CLR 77 68     74%   78 30.03 30      
Sep 16 20:53 Calm 10 Clear CLR 78 67     69%   79 30.01 29.99      
Sep 16 19:53 Calm 10 Clear CLR 83 66     57%   85 29.99 29.97      
Sep 16 18:53 SSW 5 10 Clear CLR 88 66     48%   90 29.97 29.95      
Sep 16 17:53 S 6 10 Clear CLR 91 63     39%   92 29.97 29.94      
Sep 16 16:53 SW 7 10 Clear CLR 92 61     36%   92 29.97 29.95      
Sep 16 15:53 SW 6 10 Clear CLR 94 61     34%   94 29.98 29.96      
Sep 16 14:53 SSE 6 10 Mostly Clear FEW060 89 63     42%   90 30 29.98      
Sep 16 13:53   10 Partly Cloudy SCT060 89 63     42%   90 30.01 29.99      
Sep 16 12:53 5 10 Mostly Clear FEW050 89 66     47%   92 30.04 30.01      
Sep 16 11:53 S 8 10 Clear CLR 89 67     48%   92 30.05 30.03      
Sep 16 10:53 5 10 Mostly Clear FEW041 84 70     63%   88 30.06 30.04      
Sep 16 09:53 SSW 5 10 Clear CLR 81 69     67%   84 30.07 30.05      
Sep 16 08:53 5 10 Clear CLR 76 68     76%   77 30.06 30.04      
Sep 16 07:53 Calm 6 Fog/Mist FEW049 69 66     90%     30.05 30.03      
Sep 16 06:53 Calm 9 Partly Cloudy FEW045 SCT050 68 65     90%     30.04 30.01      
Sep 16 05:53 Calm 9 Mostly Cloudy BKN045 69 65     87%     30.01 29.99      
Sep 16 04:53 E 6 9 Clear CLR 69 65     87%     29.99 29.97      
Sep 16 03:53 E 5 9 Clear CLR 68 65     90%     29.98 29.96      
Jun 11 21:53 SE 8 10 Clear   82 72     72%   87 29.98 29.96      
Jun 10 21:53 ESE 3 10 Clear CLR 76 63     64%   76 29.95 29.93      
Jun 10 10:53 S 10 10 Clear CLR 80 62     54%   81 30 29.98      
Jun 08 18:53 NE 9 10 Clear   80 54     41%   80 29.92 29.9      
Jun 08 13:53   10 Clear CLR 83 55     38%   82 29.99 29.98      
Jun 08 07:53 Calm 10 Clear CLR 64 59     84%     30.03 30.02      
Jun 06 10:53 ENE 10 10 Mostly Clear FEW033 83 71     67%   88 29.85 29.83      
Jun 06 01:07 Calm 10 Partly Cloudy SCT016 70 69     97%     29.81        
Notice The following observation data may not be complete
Jun 05 15:38   10 Mostly Clear FEW006          %